Regional Weather Roundup
Issued by NWS Goodland, KS

Home | Current Version | Previous Version | Graphics & Text | Print | Product List | Glossary On
Versions: 1 2 3 4 5 6 7 8 9 10 11 12 13 14 15 16 17 18 19 20 21 22 23 24 25 26 27 28 29 30 31 32 33 34 35 36 37 38 39 40 41 42 43 44 45 46 47 48 49 50
000
ASUS43 KGLD 310059
RWRGLD

GOODLAND FORECAST AREA HOURLY WEATHER ROUNDUP
NATIONAL WEATHER SERVICE GOODLAND KS
700 PM MDT WED JUL 30 2014

...OFFICIAL OBSERVATIONS...

CITY           SKY/WX    TMP DP  RH WIND       PRES   REMARKS
GOODLAND KS    CLOUDY    70  54  56 NW5       30.23F
HILL CITY KS   PTCLDY    80  52  37 NE6       30.15S
IMPERIAL NEB   CLOUDY    74  56  53 W5        30.20S
MCCOOK NEB     PTCLDY    74  60  61 SW3       30.17S
AKRON CO       CLOUDY    62  52  69 W8        30.30S
BURLINGTON CO  CLOUDY    67  52  58 NW3       30.26F
LIMON CO       CLOUDY    60  50  69 S7        30.33F
$$

...UNOFFICIAL OBSERVATIONS...

CITY           SKY/WX    TMP DP  RH WIND       PRES   REMARKS
COLBY KS       CLEAR     72  61  68 SW5       30.21S
GOVE KS          N/A     75  32  20 MISG        N/A
LENORA KS        N/A     77  32  19 MISG        N/A
NORTON KS      CLEAR     79  48  34 NE3       30.15S
SHARON SPRINGS   N/A     69  57  65 CALM        N/A
WAKEENEY KS      N/A     77  45  31 MISG        N/A
TRENTON NEB      N/A     75  32  20 CALM        N/A
KIT CARSON CO    N/A     66  53  64 CALM        N/A
$$


USA.gov is the U.S. government's official web portal to all federal, state and local government web resources and services.